(°C)
12°
14°
15°
17°
18°
19°
19°
(°C)
10°
12°
13°
14°
15°
15°
16°
ЮЮЗ
ЮЗ
ЮЗ
ЗЮЗ
ЗЮЗ
ЗЮЗ
ЗЮЗ
(км/ч)
8-17
9-17
10-18
12-21
15-25
17-26
17-26
(мм)
0
0
0
0
0
0
0
(%)
0
0
0
7
8
8
1

Высота солнцестояния

/ 19.2°
sun-icon
UV 3
04:54
21:50
Убывающая луна (211°)
23:14
07:18

METAR для 57.92°С 56.02°В (USPP)

Время Условия Температура/
Точка росы
Ветер Видимость Погода Облачность Давление Изменить Необработанный
VFR 12°C / 9°C 220º 8kt >10km - Clouds and Visibility OK 1019 No Significant change. Runway 21: Clear and dry, 51-100% contamination with <1mm, friction coefficient 0.60. USPP 260230Z 22004MPS CAVOK 12/09 Q1019 R21/090060 NOSIG RMK QFE753
VFR 12°C / 9°C 220º 6kt >10km - Clouds and Visibility OK 1019 No Significant change. Runway 21: Clear and dry, 51-100% contamination with <1mm, friction coefficient 0.60. USPP 260200Z 22003MPS CAVOK 12/09 Q1019 R21/090060 NOSIG RMK QFE753
VFR 11°C / 9°C 230º 8kt >10km - Scattered Clouds 4300ft 1019 No Significant change. Runway 21: Clear and dry, 51-100% contamination with <1mm, friction coefficient 0.60. USPP 260130Z 23004MPS 9999 SCT043CB 11/09 Q1019 R21/090060 NOSIG RMK QFE754
VFR 11°C / 8°C 240º 6kt >10km - Clouds and Visibility OK 1019 No Significant change. Runway 21: Clear and dry, 51-100% contamination with <1mm, friction coefficient 0.60. USPP 260100Z 24003MPS CAVOK 11/08 Q1019 R21/090060 NOSIG RMK QFE754
VFR 11°C / 8°C 240º 8kt >10km - Clouds and Visibility OK 1019 No Significant change. Runway 21: Clear and dry, 51-100% contamination with <1mm, friction coefficient 0.60. USPP 260030Z 24004MPS CAVOK 11/08 Q1019 R21/090060 NOSIG RMK QFE753
VFR 11°C / 8°C 230º 8kt >10km - Clouds and Visibility OK 1019 Temporary: Visibility 3200. Mist . RMK QFE753 . Runway 21: Clear and dry, 51-100% contamination with <1mm, friction coefficient 0.60. USPP 260000Z 23004MPS CAVOK 11/08 Q1019 R21/090060 TEMPO 3200 BR RMK QFE753
VFR 11°C / 8°C 230º 8kt >10km - Clouds and Visibility OK 1019 Temporary: Visibility 3200. Mist . RMK QFE753 . Runway 21: Clear and dry, 51-100% contamination with <1mm, friction coefficient 0.60. USPP 252330Z 23004MPS CAVOK 11/08 Q1019 R21/090060 TEMPO 3200 BR RMK QFE753
VFR 11°C / 8°C 230º 8kt >10km - Clouds and Visibility OK 1019 Temporary: Visibility 3200. Mist . RMK QFE753 . Runway 21: Clear and dry, 51-100% contamination with <1mm, friction coefficient 0.60. USPP 252300Z 23004MPS CAVOK 11/08 Q1019 R21/090060 TEMPO 3200 BR RMK QFE753
VFR 11°C / 8°C 230º 6kt >10km - Clouds and Visibility OK 1019 Temporary: Visibility 3200. Mist . RMK QFE753 . Runway 21: Clear and dry, 51-100% contamination with <1mm, friction coefficient 0.60. USPP 252230Z 23003MPS CAVOK 11/08 Q1019 R21/090060 TEMPO 3200 BR RMK QFE753
VFR 9°C / 7°C 230º 6kt >10km - Clouds and Visibility OK 1019 Temporary: Visibility 3200. Mist . RMK QFE753 . Runway 21: Clear and dry, 51-100% contamination with <1mm, friction coefficient 0.60. USPP 252200Z 23003MPS CAVOK 09/07 Q1019 R21/090060 TEMPO 3200 BR RMK QFE753
VFR 10°C / 8°C 240º 6kt >10km - Clouds and Visibility OK 1019 Temporary: Visibility 3200. Mist . RMK QFE753 . Runway 21: Clear and dry, 51-100% contamination with <1mm, friction coefficient 0.60. USPP 252130Z 24003MPS CAVOK 10/08 Q1019 R21/090060 TEMPO 3200 BR RMK QFE753
VFR 9°C / 7°C 240º 6kt >10km - Clouds and Visibility OK 1019 Temporary: Visibility 3200. Mist . RMK QFE753 . Runway 21: Clear and dry, 51-100% contamination with <1mm, friction coefficient 0.60. USPP 252100Z 24003MPS CAVOK 09/07 Q1019 R21/090060 TEMPO 3200 BR RMK QFE753
VFR 10°C / 7°C 230º 8kt >10km - Clouds and Visibility OK 1019 Temporary: Visibility 3200. Mist . RMK QFE753 . Runway 21: Clear and dry, 51-100% contamination with <1mm, friction coefficient 0.60. USPP 252030Z 23004MPS CAVOK 10/07 Q1019 R21/090060 TEMPO 3200 BR RMK QFE753
VFR 11°C / 8°C 230º 8kt >10km - Clouds and Visibility OK 1019 Temporary: Visibility 3200. Mist . RMK QFE753 . Runway 21: Clear and dry, 51-100% contamination with <1mm, friction coefficient 0.60. USPP 252000Z 23004MPS CAVOK 11/08 Q1019 R21/090060 TEMPO 3200 BR RMK QFE753
VFR 10°C / 8°C 230º 6kt >10km - Clouds and Visibility OK 1019 No Significant change. Runway 21: Clear and dry, 51-100% contamination with <1mm, friction coefficient 0.60. USPP 251930Z 23003MPS CAVOK 10/08 Q1019 R21/090060 NOSIG RMK QFE753
VFR 11°C / 8°C 220º 8kt >10km - Clouds and Visibility OK 1019 No Significant change. Runway 21: Clear and dry, 51-100% contamination with <1mm, friction coefficient 0.60. USPP 251900Z 22004MPS CAVOK 11/08 Q1019 R21/090060 NOSIG RMK QFE753
VFR 11°C / 8°C 230º 6kt >10km - Clouds and Visibility OK 1019 No Significant change. Runway 21: Clear and dry, 51-100% contamination with <1mm, friction coefficient 0.60. USPP 251830Z 23003MPS CAVOK 11/08 Q1019 R21/090060 NOSIG RMK QFE753
VFR 12°C / 8°C 220º 8kt >10km - Clouds and Visibility OK 1018 No Significant change. Runway 21: Clear and dry, 51-100% contamination with <1mm, friction coefficient 0.60. USPP 251800Z 22004MPS CAVOK 12/08 Q1018 R21/090060 NOSIG RMK QFE753
VFR 12°C / 9°C 220º 6kt >10km - Clouds and Visibility OK 1018 No Significant change. Runway 21: Clear and dry, 51-100% contamination with <1mm, friction coefficient 0.60. USPP 251730Z 22003MPS CAVOK 12/09 Q1018 R21/090060 NOSIG RMK QFE753
VFR 13°C / 9°C 260º 6kt >10km - Clouds and Visibility OK 1018 No Significant change. Runway 21: Clear and dry, 51-100% contamination with <1mm, friction coefficient 0.60. USPP 251700Z 26003MPS CAVOK 13/09 Q1018 R21/090060 NOSIG RMK QFE753
VFR 15°C / 9°C 260º 6kt >10km - Clouds and Visibility OK 1018 No Significant change. Runway 21: Clear and dry, 51-100% contamination with <1mm, friction coefficient 0.60. USPP 251630Z 26003MPS CAVOK 15/09 Q1018 R21/090060 NOSIG RMK QFE753
VFR 16°C / 9°C 270º 4kt >10km - Clouds and Visibility OK 1018 No Significant change. Runway 21: Clear and dry, 51-100% contamination with <1mm, friction coefficient 0.60. USPP 251600Z 27002MPS CAVOK 16/09 Q1018 R21/090060 NOSIG RMK QFE753
VFR 17°C / 8°C 290º 4kt >10km - Clouds and Visibility OK 1018 No Significant change. Runway 21: Clear and dry, 51-100% contamination with <1mm, friction coefficient 0.60. USPP 251530Z 29002MPS CAVOK 17/08 Q1018 R21/090060 NOSIG RMK QFE753
VFR 18°C / 9°C 300º 6kt >10km - Clouds and Visibility OK 1018 No Significant change. Runway 21: Clear and dry, 51-100% contamination with <1mm, friction coefficient 0.60. USPP 251500Z 30003MPS CAVOK 18/09 Q1018 R21/090060 NOSIG RMK QFE753

VFR

12°C / 9°C

[Больше]
Ветер 220º 8kt
Видимость >10km
Погода -
Облачность Clouds and Visibility OK
Давление 1019
Изменить No Significant change. Runway 21: Clear and dry, 51-100% contamination with <1mm, friction coefficient 0.60.
Необработанный USPP 260230Z 22004MPS CAVOK 12/09 Q1019 R21/090060 NOSIG RMK QFE753

VFR

12°C / 9°C

[Больше]
Ветер 220º 6kt
Видимость >10km
Погода -
Облачность Clouds and Visibility OK
Давление 1019
Изменить No Significant change. Runway 21: Clear and dry, 51-100% contamination with <1mm, friction coefficient 0.60.
Необработанный USPP 260200Z 22003MPS CAVOK 12/09 Q1019 R21/090060 NOSIG RMK QFE753

VFR

11°C / 9°C

[Больше]
Ветер 230º 8kt
Видимость >10km
Погода -
Облачность Scattered Clouds 4300ft
Давление 1019
Изменить No Significant change. Runway 21: Clear and dry, 51-100% contamination with <1mm, friction coefficient 0.60.
Необработанный USPP 260130Z 23004MPS 9999 SCT043CB 11/09 Q1019 R21/090060 NOSIG RMK QFE754

VFR

11°C / 8°C

[Больше]
Ветер 240º 6kt
Видимость >10km
Погода -
Облачность Clouds and Visibility OK
Давление 1019
Изменить No Significant change. Runway 21: Clear and dry, 51-100% contamination with <1mm, friction coefficient 0.60.
Необработанный USPP 260100Z 24003MPS CAVOK 11/08 Q1019 R21/090060 NOSIG RMK QFE754

VFR

11°C / 8°C

[Больше]
Ветер 240º 8kt
Видимость >10km
Погода -
Облачность Clouds and Visibility OK
Давление 1019
Изменить No Significant change. Runway 21: Clear and dry, 51-100% contamination with <1mm, friction coefficient 0.60.
Необработанный USPP 260030Z 24004MPS CAVOK 11/08 Q1019 R21/090060 NOSIG RMK QFE753

VFR

11°C / 8°C

[Больше]
Ветер 230º 8kt
Видимость >10km
Погода -
Облачность Clouds and Visibility OK
Давление 1019
Изменить Temporary: Visibility 3200. Mist . RMK QFE753 . Runway 21: Clear and dry, 51-100% contamination with <1mm, friction coefficient 0.60.
Необработанный USPP 260000Z 23004MPS CAVOK 11/08 Q1019 R21/090060 TEMPO 3200 BR RMK QFE753

VFR

11°C / 8°C

[Больше]
Ветер 230º 8kt
Видимость >10km
Погода -
Облачность Clouds and Visibility OK
Давление 1019
Изменить Temporary: Visibility 3200. Mist . RMK QFE753 . Runway 21: Clear and dry, 51-100% contamination with <1mm, friction coefficient 0.60.
Необработанный USPP 252330Z 23004MPS CAVOK 11/08 Q1019 R21/090060 TEMPO 3200 BR RMK QFE753

VFR

11°C / 8°C

[Больше]
Ветер 230º 8kt
Видимость >10km
Погода -
Облачность Clouds and Visibility OK
Давление 1019
Изменить Temporary: Visibility 3200. Mist . RMK QFE753 . Runway 21: Clear and dry, 51-100% contamination with <1mm, friction coefficient 0.60.
Необработанный USPP 252300Z 23004MPS CAVOK 11/08 Q1019 R21/090060 TEMPO 3200 BR RMK QFE753

VFR

11°C / 8°C

[Больше]
Ветер 230º 6kt
Видимость >10km
Погода -
Облачность Clouds and Visibility OK
Давление 1019
Изменить Temporary: Visibility 3200. Mist . RMK QFE753 . Runway 21: Clear and dry, 51-100% contamination with <1mm, friction coefficient 0.60.
Необработанный USPP 252230Z 23003MPS CAVOK 11/08 Q1019 R21/090060 TEMPO 3200 BR RMK QFE753

VFR

9°C / 7°C

[Больше]
Ветер 230º 6kt
Видимость >10km
Погода -
Облачность Clouds and Visibility OK
Давление 1019
Изменить Temporary: Visibility 3200. Mist . RMK QFE753 . Runway 21: Clear and dry, 51-100% contamination with <1mm, friction coefficient 0.60.
Необработанный USPP 252200Z 23003MPS CAVOK 09/07 Q1019 R21/090060 TEMPO 3200 BR RMK QFE753

VFR

10°C / 8°C

[Больше]
Ветер 240º 6kt
Видимость >10km
Погода -
Облачность Clouds and Visibility OK
Давление 1019
Изменить Temporary: Visibility 3200. Mist . RMK QFE753 . Runway 21: Clear and dry, 51-100% contamination with <1mm, friction coefficient 0.60.
Необработанный USPP 252130Z 24003MPS CAVOK 10/08 Q1019 R21/090060 TEMPO 3200 BR RMK QFE753

VFR

9°C / 7°C

[Больше]
Ветер 240º 6kt
Видимость >10km
Погода -
Облачность Clouds and Visibility OK
Давление 1019
Изменить Temporary: Visibility 3200. Mist . RMK QFE753 . Runway 21: Clear and dry, 51-100% contamination with <1mm, friction coefficient 0.60.
Необработанный USPP 252100Z 24003MPS CAVOK 09/07 Q1019 R21/090060 TEMPO 3200 BR RMK QFE753

VFR

10°C / 7°C

[Больше]
Ветер 230º 8kt
Видимость >10km
Погода -
Облачность Clouds and Visibility OK
Давление 1019
Изменить Temporary: Visibility 3200. Mist . RMK QFE753 . Runway 21: Clear and dry, 51-100% contamination with <1mm, friction coefficient 0.60.
Необработанный USPP 252030Z 23004MPS CAVOK 10/07 Q1019 R21/090060 TEMPO 3200 BR RMK QFE753

VFR

11°C / 8°C

[Больше]
Ветер 230º 8kt
Видимость >10km
Погода -
Облачность Clouds and Visibility OK
Давление 1019
Изменить Temporary: Visibility 3200. Mist . RMK QFE753 . Runway 21: Clear and dry, 51-100% contamination with <1mm, friction coefficient 0.60.
Необработанный USPP 252000Z 23004MPS CAVOK 11/08 Q1019 R21/090060 TEMPO 3200 BR RMK QFE753

VFR

10°C / 8°C

[Больше]
Ветер 230º 6kt
Видимость >10km
Погода -
Облачность Clouds and Visibility OK
Давление 1019
Изменить No Significant change. Runway 21: Clear and dry, 51-100% contamination with <1mm, friction coefficient 0.60.
Необработанный USPP 251930Z 23003MPS CAVOK 10/08 Q1019 R21/090060 NOSIG RMK QFE753

VFR

11°C / 8°C

[Больше]
Ветер 220º 8kt
Видимость >10km
Погода -
Облачность Clouds and Visibility OK
Давление 1019
Изменить No Significant change. Runway 21: Clear and dry, 51-100% contamination with <1mm, friction coefficient 0.60.
Необработанный USPP 251900Z 22004MPS CAVOK 11/08 Q1019 R21/090060 NOSIG RMK QFE753

VFR

11°C / 8°C

[Больше]
Ветер 230º 6kt
Видимость >10km
Погода -
Облачность Clouds and Visibility OK
Давление 1019
Изменить No Significant change. Runway 21: Clear and dry, 51-100% contamination with <1mm, friction coefficient 0.60.
Необработанный USPP 251830Z 23003MPS CAVOK 11/08 Q1019 R21/090060 NOSIG RMK QFE753

VFR

12°C / 8°C

[Больше]
Ветер 220º 8kt
Видимость >10km
Погода -
Облачность Clouds and Visibility OK
Давление 1018
Изменить No Significant change. Runway 21: Clear and dry, 51-100% contamination with <1mm, friction coefficient 0.60.
Необработанный USPP 251800Z 22004MPS CAVOK 12/08 Q1018 R21/090060 NOSIG RMK QFE753

VFR

12°C / 9°C

[Больше]
Ветер 220º 6kt
Видимость >10km
Погода -
Облачность Clouds and Visibility OK
Давление 1018
Изменить No Significant change. Runway 21: Clear and dry, 51-100% contamination with <1mm, friction coefficient 0.60.
Необработанный USPP 251730Z 22003MPS CAVOK 12/09 Q1018 R21/090060 NOSIG RMK QFE753

VFR

13°C / 9°C

[Больше]
Ветер 260º 6kt
Видимость >10km
Погода -
Облачность Clouds and Visibility OK
Давление 1018
Изменить No Significant change. Runway 21: Clear and dry, 51-100% contamination with <1mm, friction coefficient 0.60.
Необработанный USPP 251700Z 26003MPS CAVOK 13/09 Q1018 R21/090060 NOSIG RMK QFE753

VFR

15°C / 9°C

[Больше]
Ветер 260º 6kt
Видимость >10km
Погода -
Облачность Clouds and Visibility OK
Давление 1018
Изменить No Significant change. Runway 21: Clear and dry, 51-100% contamination with <1mm, friction coefficient 0.60.
Необработанный USPP 251630Z 26003MPS CAVOK 15/09 Q1018 R21/090060 NOSIG RMK QFE753

VFR

16°C / 9°C

[Больше]
Ветер 270º 4kt
Видимость >10km
Погода -
Облачность Clouds and Visibility OK
Давление 1018
Изменить No Significant change. Runway 21: Clear and dry, 51-100% contamination with <1mm, friction coefficient 0.60.
Необработанный USPP 251600Z 27002MPS CAVOK 16/09 Q1018 R21/090060 NOSIG RMK QFE753

VFR

17°C / 8°C

[Больше]
Ветер 290º 4kt
Видимость >10km
Погода -
Облачность Clouds and Visibility OK
Давление 1018
Изменить No Significant change. Runway 21: Clear and dry, 51-100% contamination with <1mm, friction coefficient 0.60.
Необработанный USPP 251530Z 29002MPS CAVOK 17/08 Q1018 R21/090060 NOSIG RMK QFE753

VFR

18°C / 9°C

[Больше]
Ветер 300º 6kt
Видимость >10km
Погода -
Облачность Clouds and Visibility OK
Давление 1018
Изменить No Significant change. Runway 21: Clear and dry, 51-100% contamination with <1mm, friction coefficient 0.60.
Необработанный USPP 251500Z 30003MPS CAVOK 18/09 Q1018 R21/090060 NOSIG RMK QFE753

TAF для 57.92°С 56.02°В (USPP)

From till


From till Wind 250º 6kt. Gust 23kt. Visibility 10km or more. Broken Clouds 4000ft.
Temporarly from till Light Showers Rain . Broken Clouds 2000ft.
Becoming from till Wind 220º 6kt. Gust 16kt. Visibility 10km or more. Broken Clouds 4000ft.

Необработанный: TAF USPP 260155Z 2603/2703 25003G12MPS 9999 BKN040 TEMPO 2603/2615 -SHRA BKN020CB BECMG 2615/2616 22003G08MPS

Текущие спутниковые изображения и снимки дождя для 57.92°С 56.02°В

Указатель местности находится на 57.92°С 56.02°В. [Больше]

Спутниковое изображение в реальном времени сочетает в себе видимый свет в дневное время с инфракрасным излучением в ночное время. Ночью изображение получается не темным, так как инфракрасное излучение может обнаружить разницу температур. К сожалению, низкие облака и туман трудно отличить от температуры у поверхности земли и поэтому могут быть почти незаметны ночью. Спутниковые снимки Meteosat для Европы обновляются каждые 5 минут в режиме реального времени.Снимки GOES-16/GOES-17 (Северная и Южная Америка) и Химавари (Азия) обновляются каждые 10 минут.

Копирайт 2021 EUMETSAT / meteoblue. / Копирайт 2021 meteoblue

Радарный и сверхкраткосрочный прогноз осадков для 57.92°С 56.02°В

Морось
незначительный
Умеренный
Тяжелый
Очень тяжелая
Град

Индикатор местности находится на 57.92°С 56.02°В. Анимация показывает радар осадков за последний час, а также прогноз погоды для1h. Умеренная морось или легкий снег могут быть незаметны для радара. Интенсивность осадковмаркированна цветной кодировкой, начиная со светло-синего и заканчивая темно-пурпурным.